Flag for French Guiana Past Weather in Saint-Laurent-du-Maroni, French Guiana — Yesterday and Last 2 Weeks

Now
88 °F

Partly sunny.


Feels Like: 98 °F
Forecast: 75 / 91 °F
Wind: 10 mph from East

Location: Johan A. Pengel

Current Time: Dec 4, 2016 at 11:29:55 am

Latest Report: Dec 4, 2016 at 11:00 am


Visibility: N/A

Pressure: 29.92 "Hg

Humidity: 66%

Dew Point: 75 °F

Location of Saint-Laurent-du-MaroniLocation

Past Weather in Saint-Laurent-du-Maroni — Graph

°F

Saint-Laurent-du-Maroni Temperature Yesterday

Maximum temperature yesterday: 91 °F (at 2:00 pm)
Minimum temperature yesterday: 73 °F (at 2:00 am)
Average temperature yesterday: 81 °F

High & Low Weather Summary for the Past Weeks

 TemperatureHumidityPressure
High93 °F (Nov 20, 3:00 pm)100% (Nov 19, 4:00 pm)29.95 "Hg (Nov 19, 4:00 pm)
Low73 °F (Nov 20, 5:00 am)22% (Nov 26, 11:00 pm)29.71 "Hg (Nov 20, 3:00 pm)
Average81 °F79%29.82 "Hg
* Reported Nov 19 10:00 am — Dec 4 10:00 am, Saint-Laurent-du-Maroni, Weather by CustomWeather, © 2016

Note: Actual official high and low records may vary slightly from our data, if they occured in-between our weather recording intervals... More about our weather records

Advertising

Saint-Laurent-du-Maroni Weather History for the Previous 24 Hours

Scroll right to see more
 ConditionsComfort  
Time TempWeatherWind HumidityBarometerVisibility
10:00 am
Sun, Dec 4
82 °FScattered clouds.10 mph79%29.92 "HgN/A
9:00 am81 °FScattered clouds.7 mph84%29.92 "HgN/A
8:00 am75 °FScattered clouds.3 mph94%29.89 "HgN/A
7:00 am73 °FScattered clouds.1 mph100%29.86 "HgN/A
6:00 am73 °FPassing clouds.1 mph100%29.83 "HgN/A
5:00 am73 °FClear.1 mph94%29.83 "Hg10 mi
4:00 am75 °FClear.2 mph94%29.83 "Hg10 mi
3:00 am75 °FClear.3 mph94%29.83 "Hg10 mi
2:00 am75 °FClear.2 mph100%29.86 "Hg10 mi
1:00 am77 °FClear.1 mph94%29.86 "Hg10 mi
12:00 am77 °FClear.3 mph94%29.86 "Hg10 mi
11:00 pm
Sat, Dec 3
77 °FClear.3 mph94%29.86 "Hg10 mi
10:00 pm79 °FClear.5 mph89%29.86 "Hg10 mi
9:00 pm79 °FClear.6 mph89%29.86 "Hg10 mi
8:00 pm81 °FPassing clouds.8 mph84%29.83 "HgN/A
7:00 pm82 °FPassing clouds.7 mph74%29.83 "HgN/A
6:00 pm86 °FPassing clouds.9 mph62%29.80 "HgN/A
5:00 pm91 °FScattered showers. Passing clouds.5 mph49%29.80 "HgN/A
4:00 pm91 °FScattered showers. Passing clouds.8 mph49%29.80 "HgN/A
3:00 pm91 °FScattered clouds.8 mph52%29.83 "HgN/A
2:00 pm91 °FScattered clouds.9 mph49%29.83 "HgN/A
1:00 pm90 °FScattered clouds.10 mph59%29.86 "HgN/A
12:00 pm88 °FScattered clouds.9 mph59%29.89 "HgN/A
11:00 am86 °FPassing clouds.8 mph66%29.92 "HgN/A
Weather by CustomWeather, © 2016

See weather overviewHow to use our weather pages